Regional Weather Roundup
Issued by NWS Sioux Falls, SD

Home | Current Version | Previous Version | Graphics & Text | Print | Product List | Glossary Off
Versions: 1 2 3 4 5 6 7 8 9 10 11 12 13 14 15 16 17 18 19 20 21 22 23 24 25 26 27 28 29 30 31 32 33 34 35 36 37 38 39 40 41 42 43 44 45 46 47 48 49 50

000
ASUS43 KFSD 050802
RWRFSD

WEATHER ROUNDUP FOR SE SOUTH DAKOTA/SW MINNESOTA/NW IOWA
NATIONAL WEATHER SERVICE SIOUX FALLS SD
300 AM CDT SUN JUL 05 2015

NOTE: "FAIR" INDICATES FEW OR NO CLOUDS BELOW 12,000 FEET WITH NO
SIGNIFICANT WEATHER AND OR OBSTRUCTIONS TO VISIBILITY.


SDZ038>040-050-052>070-050900-
SOUTHEAST SOUTH DAKOTA

CITY           SKY/WX    TMP DP  RH WIND       PRES   REMARKS
BROOKINGS      MOCLDY    70  61  73 S15       29.87F
CHAMBERLAIN    PTCLDY    73  66  80 S10       29.75F
HURON          LGT RAIN  70  67  90 SE12      29.77F
MADISON        FAIR      68  66  94 S14       29.87S
MITCHELL       CLOUDY    72  65  78 SE15G21   29.79F
SIOUX FALLS    PTCLDY    70  62  76 S14       29.86F
WINNER         FAIR      77  63  61 S15       29.76S
YANKTON        CLOUDY    70  63  78 S9        29.84F
$$

MNZ071-072-080-081-089-090-097-098-050900-
SOUTHWEST MINNESOTA

CITY           SKY/WX    TMP DP  RH WIND       PRES   REMARKS
FAIRMONT       CLEAR     63  55  77 S10       29.93F
JACKSON        CLEAR     64  61  88 S9        29.94F
LUVERNE        PTCLDY    68  63  83 S8        29.91S
MARSHALL       PTCLDY    70  59  68 S12       29.84F
MONTEVIDEO     MOCLDY    68  63  83 S8        29.85F
PIPESTONE      PTCLDY    68  61  77 S13       29.88F
REDWOOD FALLS  PTCLDY    65  60  84 S8        29.88F
TRACY          PTCLDY    68  62  80 S10       29.88F
WINDOM         CLEAR     66  61  82 S7        29.92S
WORTHINGTON    PTCLDY    66  57  72 S13       29.92F
$$

IAZ001>003-012>014-020>022-031-032-NEZ013-014-SDZ071-050900-
NORTHWEST IOWA

CITY           SKY/WX    TMP DP  RH WIND       PRES   REMARKS
DENISON        MOCLDY    66  61  82 S9        29.94S
ESTHERVILLE    CLEAR     61  59  93 S9        29.94F
SIOUX CITY     MOCLDY    68  61  78 SE8       29.90F
SPENCER        CLEAR     64  59  83 S8        29.94S
$$

ABBREVIATIONS USED IN REMARKS
   TC - TEMPERATURE IN CELSIUS
  WCI - WIND CHILL INDEX
   HX - HEAT INDEX
  VSB - VISIBILITY



USA.gov is the U.S. government's official web portal to all federal, state and local government web resources and services.